Regional Weather Roundup
Issued by NWS

Home | Current Version | Previous Version | Text Only | Print | Product List | Glossary Off
Versions: 1 2 3 4 5 6 7 8 9 10 11 12 13 14 15 16 17 18 19 20 21 22 23 24 25 26 27 28 29 30 31 32 33 34 35 36 37 38 39 40 41 42 43 44 45 46 47 48 49 50

414
ASUS45 KABQ 030310
RWRNM
NEW MEXICO REGIONAL WEATHER ROUNDUP
NATIONAL WEATHER SERVICE ALBUQUERQUE NM
900 PM MDT MON MAY 02 2016

NOTE: "FAIR" MEANS FEW OR NO CLOUDS BELOW 12,000 FEET AGL WITH NO
       SIGNIFICANT WEATHER OR OBSTRUCTIONS TO VISION.

      THIS PRODUCT IS RELEASED AS TWO VERSIONS.  ONE VERSION NEAR
      THE TOP OF THE HOUR CONTAINING PRELIMINARY DATA FROM ALBUQUERQUE
      AND OTHER STATIONS.  A FINAL VERSION WITH ADDITIONAL DATA IS
      ISSUED ABOUT 10 MINUTES AFTER THE HOUR.

NMZ501-503-504-510>518-030400-
NORTHWEST PLATEAU/NORTHCENTRAL MOUNTAINS

CITY           SKY/WX    TMP DP  RH WIND       PRES   REMARKS
FARMINGTON     FAIR      54  34  46 NW6       30.15R
LOS ALAMOS     FAIR      48  33  55 W6        30.22R
SANTA FE       FAIR      50  29  44 W3        30.17R
TAOS           FAIR      45  30  57 NW6       30.20R
ANGEL FIRE     CLOUDY    41  30  64 CALM      30.24R

$$
NMZ402-403-502-505>509-030400-
WESTCENTRAL MOUNTAINS/SOUTHWEST MOUNTAINS

CITY           SKY/WX    TMP DP  RH WIND       PRES   REMARKS
GALLUP         CLOUDY    49  39  68 SE12      30.21R
GRANTS         LGT RAIN  44  40  86 W14G24    30.26R
SILVER CITY      N/A     57  27  30 SE3       30.15R

$$
NMZ407-409-411-412-030400-
SOUTHERN DESERTS

CITY           SKY/WX    TMP DP  RH WIND       PRES   REMARKS
LORDSBURG      FAIR      61  28  29 E6        30.06S
DEMING         FAIR      61  28  28 SE5       30.09R
LAS CRUCES     FAIR      57  24  27 CALM      30.12R
HOLLOMAN AFB   FAIR      65  28  25 SE3       30.09R
ALAMOGORDO     FAIR      59  27  29 CALM      30.11R
T OR C         FAIR      63  25  23 S5        30.10R

$$
NMZ519>523-030400-
CENTRAL VALLEYS/CENTRAL HIGHLANDS

CITY           SKY/WX    TMP DP  RH WIND       PRES   REMARKS
ALBUQUERQUE    MOCLDY    60  28  29 SW6       30.16R
DOUBLE EAGLE   PTCLDY    54  37  54 SW5       30.18R
MORIARTY ARPT  FAIR      46  26  46 SW6       30.19R
CLINES CORNERS FAIR      42  27  55 W9        30.19R
BELEN          CLOUDY    58  30  34 NW5       30.16R
SOCORRO        CLOUDY    60  31  33 CALM      30.13R

$$
NMZ524>526-539-540-030400-
SOUTHCENTRAL MOUNTAINS

CITY           SKY/WX    TMP DP  RH WIND       PRES   REMARKS
RUIDOSO          N/A     46  32  57 SE8       30.24R

$$
NMZ527>531-030400-
NORTHEAST HIGHLANDS/NORTHEAST PLAINS

CITY           SKY/WX    TMP DP  RH WIND       PRES   REMARKS
LAS VEGAS      FAIR      46  32  58 S12       30.17R
RATON          FAIR      44  33  65 W8        30.16R
CLAYTON        FAIR      48  35  60 E3        30.14R

$$
NMZ532>537-030400-
EASTCENTRAL PLAINS

CITY           SKY/WX    TMP DP  RH WIND       PRES   REMARKS
TUCUMCARI      FAIR      50  39  66 E8        30.11R
CANNON AFB     FAIR      55  34  44 SW2       30.15R
CLOVIS AIRPORT FAIR      52  36  54 SE5       30.16R

$$
NMZ028-029-538-030400-
SOUTHEAST PLAINS

CITY           SKY/WX    TMP DP  RH WIND       PRES   REMARKS
ROSWELL        FAIR      54  32  43 S5        30.11R
ARTESIA        FAIR      57  32  38 S7        30.12S
CARLSBAD       FAIR      53  31  42 SW7       30.11R
HOBBS          FAIR      54  32  43 SE6       30.15R


$$




USA.gov is the U.S. government's official web portal to all federal, state and local government web resources and services.